Zurück zum Katalog

STARLINK-11484

AktivKommunikationVLEO
NORAD 62277·PAYLOAD·🇺🇸 United States

Gestartet Dec 8, 2024 von Cape Canaveral Space Force Station

Loading…

Nächste Überflüge (nächste 24 Stunden)

TLE

AktuellSource: CelesTrak SupGP

Epoche: Sep 14, 2026, 13:46 UTC

1 62277C 24237L   26257.57409722  .00009422  00000+0  73262-4 0  2577
2 62277  43.0007 358.1885 0001660 281.2230 223.0583 15.70807097    17

Verfolge STARLINK-11484 in Echtzeit mit AllMySat

Download on the App Store